RYR137 EGJJ-EGFF

Flight info

Callsign RYR137
Flight time N/A
Altitude 18000
Route SKERY L22 EMWIP P16 TOJAQ
Aircraft B38M/M-SDE1FGHILORVWXY/HB1

Departure

Time 2026-05-07 16:49
Airport Jersey Airport (EGJJ)

Arrival

Time N/A
Airport Cardiff International Airport (EGFF)
Time Latitude Longitude Altitude Speed Heading
2026-05-07 16:32 49.20483 -2.19788 284 ft 0 kts 344°
2026-05-07 16:42 49.20488 -2.19790 282 ft 0 kts 344°
2026-05-07 16:42 49.20486 -2.19789 282 ft 1 kts 344°
2026-05-07 16:42 49.20477 -2.19785 282 ft 2 kts 344°
2026-05-07 16:43 49.20463 -2.19779 284 ft 2 kts 344°
2026-05-07 16:43 49.20462 -2.19779 284 ft 2 kts 344°
2026-05-07 16:44 49.20450 -2.19773 284 ft 2 kts 349°
2026-05-07 16:44 49.20447 -2.19773 283 ft 0 kts 335°
2026-05-07 16:44 49.20444 -2.19771 286 ft 1 kts 332°
2026-05-07 16:44 49.20441 -2.19769 285 ft 0 kts 323°
2026-05-07 16:45 49.20443 -2.19777 285 ft 1 kts 291°
2026-05-07 16:45 49.20443 -2.19779 284 ft 0 kts 283°
2026-05-07 16:45 49.20442 -2.19794 283 ft 5 kts 261°
2026-05-07 16:46 49.20438 -2.19872 281 ft 5 kts 288°
2026-05-07 16:46 49.20451 -2.19894 285 ft 3 kts 319°
2026-05-07 16:46 49.20505 -2.19947 285 ft 12 kts 304°
2026-05-07 16:46 49.20534 -2.20073 286 ft 13 kts 288°
2026-05-07 16:47 49.20568 -2.20233 284 ft 15 kts 288°
2026-05-07 16:47 49.20594 -2.20359 281 ft 10 kts 287°
2026-05-07 16:47 49.20610 -2.20437 283 ft 5 kts 284°
2026-05-07 16:47 49.20623 -2.20535 281 ft 15 kts 277°
2026-05-07 16:48 49.20647 -2.20689 280 ft 10 kts 315°
2026-05-07 16:48 49.20686 -2.20684 283 ft 8 kts 33°
2026-05-07 16:48 49.20697 -2.20654 280 ft 1 kts 70°
2026-05-07 16:48 49.20697 -2.20653 280 ft 0 kts 71°
2026-05-07 16:49 49.20717 -2.20504 280 ft 51 kts 82°
2026-05-07 16:49 49.20776 -2.19762 282 ft 93 kts 83°
2026-05-07 16:49 49.20886 -2.18494 409 ft 135 kts 82°
2026-05-07 16:49 49.21052 -2.17071 993 ft 138 kts 77°
2026-05-07 16:50 49.21416 -2.15590 1302 ft 161 kts 64°
2026-05-07 16:50 49.22145 -2.14241 1757 ft 175 kts 54°
2026-05-07 16:50 49.22758 -2.12743 2541 ft 160 kts 60°
2026-05-07 16:50 49.23267 -2.11172 2731 ft 175 kts 72°
2026-05-07 16:51 49.23897 -2.09405 2628 ft 205 kts 52°
2026-05-07 16:51 49.25223 -2.08449 2581 ft 224 kts 14°
2026-05-07 16:51 49.26404 -2.07399 3634 ft 176 kts 41°
2026-05-07 16:51 49.27321 -2.06335 4355 ft 164 kts 41°
2026-05-07 16:52 49.28244 -2.05250 4720 ft 169 kts 41°
2026-05-07 16:52 49.29207 -2.04183 5069 ft 174 kts 27°
2026-05-07 16:52 49.30358 -2.03425 5163 ft 193 kts 21°
2026-05-07 16:52 49.31776 -2.03419 5118 ft 215 kts 350°
2026-05-07 16:53 49.33252 -2.03891 5410 ft 219 kts 347°
2026-05-07 16:53 49.34766 -2.04408 5812 ft 227 kts 347°
2026-05-07 16:53 49.36329 -2.04936 6217 ft 233 kts 347°